Location: *
(55.5817°S, 142.4781°W)
Time: 16:39:36
(UTC+00:00)

Cosmos 1818 - Visible Passes

Search period start: 11 June 2026 00:00
Search period end: 21 June 2026 00:00
Orbit: 773 x 798 km, 65.0° (Epoch: 11 June)

Date Brightness Start Highest point End Pass type
(mag) Time Alt. Az. Time Alt. Az. Time Alt. Az.
11 Jun 4.3 01:59:14 10° W 02:04:24 43° SSW 02:09:34 10° SE visible
11 Jun 4.6 03:44:19 10° WSW 03:49:06 30° S 03:50:16 28° SSE visible
11 Jun 5.5 05:28:39 10° SW 05:30:52 23° SSW 05:30:52 23° SSW visible
12 Jun 4.7 03:11:39 10° WSW 03:16:26 31° S 03:18:45 22° SE visible
12 Jun 5.0 04:56:08 10° SW 04:59:21 30° SSW 04:59:21 30° SSW visible
12 Jun 6.5 06:39:51 10° SW 06:39:58 11° SW 06:39:58 11° SW visible
13 Jun 4.6 02:38:56 10° WSW 02:43:46 32° S 02:47:15 16° SE visible
13 Jun 4.6 04:23:36 10° SW 04:27:51 34° S 04:27:51 34° S visible
13 Jun 6.1 06:07:23 10° SW 06:08:28 16° SW 06:08:28 16° SW visible
14 Jun 4.6 02:06:12 10° WSW 02:11:05 33° SSW 02:15:45 11° SE visible
14 Jun 4.4 03:51:02 10° SW 03:55:56 33° SSE 03:56:22 33° SSE visible
14 Jun 5.5 05:34:54 10° SW 05:36:59 23° SW 05:36:59 23° SW visible
15 Jun 4.5 03:18:25 10° SW 03:23:16 32° S 03:24:54 26° SE visible
15 Jun 4.9 05:02:26 10° SW 05:05:31 33° SSW 05:05:31 33° SSW visible
16 Jun 4.6 02:45:47 10° WSW 02:50:35 31° S 02:53:27 19° SE visible
16 Jun 4.3 04:29:57 10° SW 04:34:04 42° S 04:34:04 42° S visible
16 Jun 6.1 06:13:38 10° SW 06:14:41 16° SW 06:14:41 16° SW visible
17 Jun 4.6 02:13:07 10° WSW 02:17:54 30° S 02:22:03 13° ESE visible
17 Jun 4.0 03:57:28 10° SW 04:02:38 43° SSE 04:02:40 43° SSE visible
17 Jun 5.5 05:41:08 10° SW 05:43:17 24° SW 05:43:17 24° SW visible
18 Jun 4.6 01:40:26 10° WSW 01:45:13 31° S 01:50:01 10° ESE visible
18 Jun 4.2 03:24:57 10° SW 03:30:01 38° SSE 03:31:18 33° SE visible
18 Jun 4.7 05:08:39 10° SW 05:11:55 38° SW 05:11:55 38° SW visible
19 Jun 4.3 02:52:23 10° SW 02:57:22 35° SSE 02:59:59 23° ESE visible
19 Jun 3.9 04:36:11 10° SW 04:40:36 59° SSW 04:40:36 59° SSW visible
19 Jun 6.2 06:20:09 10° WSW 06:21:14 15° WSW 06:21:14 15° WSW visible
20 Jun 4.4 02:19:49 10° SW 02:24:43 33° SSE 02:28:44 14° ESE visible
20 Jun 3.5 04:03:43 10° SW 04:09:07 65° SE 04:09:22 64° SE visible
20 Jun 5.6 05:47:31 10° SW 05:50:00 24° WSW 05:50:00 24° WSW visible
